Regional Weather Roundup
Issued by NWS

Home | Current Version | Previous Version | Graphics & Text | Print | Product List | Glossary Off
Versions: 1 2 3 4 5 6 7 8 9 10 11 12 13 14 15 16 17 18 19 20 21 22 23 24 25 26 27 28 29 30 31 32 33 34 35 36 37 38 39 40 41 42 43 44 45 46 47 48 49 50

000
ASUS43 KLSX 271807
RWRMO

WEATHER SUMMARY FOR MISSOURI
NATIONAL WEATHER SERVICE SPRINGFIELD MO
1200 PM CST MON FEB 27 2017

NOTE: "FAIR" INDICATES FEW OR NO CLOUDS BELOW 12,000 FEET WITH NO
       SIGNIFICANT WEATHER AND/OR OBSTRUCTIONS TO VISIBILITY.
       CURRENT SKY AND/OR WEATHER CONDITIONS ARE NOT AVAILABLE FOR
       CHILLICOTHE AND FARMINGTON.

MOZ001>031-035>038-043-044-053-054-271900-
...NORTHERN AND WESTERN MISSOURI...

CITY           SKY/WX    TMP DP  RH WIND       PRES   REMARKS
KANSAS CTY INT PTSUNNY   54  33  45 S18       29.99F
6HR MIN TEMP:  27; 6HR MAX TEMP:  55;

KANSAS C DTWN  SUNNY     58  33  39 S17G25    30.01F
6HR MIN TEMP:  28; 6HR MAX TEMP:  58;

LEE`S SUMMIT   SUNNY     56  34  43 S16G22    30.01F
6HR MIN TEMP:  29; 6HR MAX TEMP:  56;

ST JOSEPH      MOSUNNY   56  24  29 SE17G25   29.99F
6HR MIN TEMP:  23; 6HR MAX TEMP:  57;

CHILLICOTHE      N/A     54  33  45 SE13      30.05F
6HR MIN TEMP:  25; 6HR MAX TEMP:  54;

KIRKSVILLE     SUNNY     55  30  38 S13G18    30.06F
6HR MIN TEMP:  23; 6HR MAX TEMP:  55;


$$
MOZ066>068-077>081-088>096-101>105-271900-
...SOUTHWEST MISSOURI...

CITY           SKY/WX    TMP DP  RH WIND       PRES   REMARKS
SPRINGFIELD    SUNNY     61  37  41 SE13      30.01F
6HR MIN TEMP:  34; 6HR MAX TEMP:  61;

JOPLIN         MOSUNNY   63  41  44 SE12      29.98F
6HR MIN TEMP:  32; 6HR MAX TEMP:  64;

BRANSON        MOSUNNY   59  37  44 SE15G21   30.05F

$$
MOZ032>034-039>042-045>050-055>058-069>072-271900-
...CENTRAL MISSOURI...

CITY           SKY/WX    TMP DP  RH WIND       PRES   REMARKS
COLUMBIA       SUNNY     58  34  40 SE14      30.06F
6HR MIN TEMP:  32; 6HR MAX TEMP:  58;

JEFFERSON CITY SUNNY     55  36  48 SE9       30.08F
6HR MIN TEMP:  27; 6HR MAX TEMP:  55;

ROLLA          SUNNY     58  39  49 S8G20     30.06F
6HR MIN TEMP:  32; 6HR MAX TEMP:  58; 6HR PCP: TRACE;

SEDALIA        SUNNY     59  33  37 SE15      30.05F
6HR MIN TEMP:  27; 6HR MAX TEMP:  60;

WHITEMAN AFB   MOSUNNY   58  33  38 S15G21    30.02F
WARRENSBURG    SUNNY     57  32  38 SE12G20   30.02F
OSAGE BEACH    SUNNY     58  38  47 S13       30.06F

$$
MOZ051-052-059>065-271900-
...EAST CENTRAL MISSOURI...

CITY           SKY/WX    TMP DP  RH WIND       PRES   REMARKS
ST LOUIS INTL  MOSUNNY   59  37  44 S8        30.11F
6HR MIN TEMP:  38; 6HR MAX TEMP:  59;

SPIRIT OF STL  SUNNY     58  37  45 S7G16     30.10F
6HR MIN TEMP:  28; 6HR MAX TEMP:  59;

ST CHARLES     SUNNY     58  37  45 S8        30.11F
6HR MIN TEMP:  34; 6HR MAX TEMP:  58;


$$
MOZ072>076-082>087-097>100-106>115-271900-
...SOUTH CENTRAL AND SOUTHEAST MISSOURI...

CITY           SKY/WX    TMP DP  RH WIND       PRES   REMARKS
CAPE GIRARDEAU CLOUDY    56  46  69 S9        30.14F
6HR MIN TEMP:  42; 6HR MAX TEMP:  56;

FARMINGTON     SUNNY     59  42  53 S12       30.11F
6HR MIN TEMP:  34; 6HR MAX TEMP:  59;

POPLAR BLUFF   PTSUNNY   59  48  67 S7        30.13F
6HR MIN TEMP:  41; 6HR MAX TEMP:  59;

WEST PLAINS    SUNNY     59  41  51 S9        30.09F
6HR MIN TEMP:  31; 6HR MAX TEMP:  59;


$$


USA.gov is the U.S. government's official web portal to all federal, state and local government web resources and services.